Year,Month,Day,Hour,Minute,Value (Times are PST for temperature in C)
2015,04,17,00,00,7.40
2015,04,17,00,01,7.40
2015,04,17,00,02,7.40
2015,04,17,00,03,7.40
2015,04,17,00,04,7.40
2015,04,17,00,05,7.40
2015,04,17,00,06,7.40
2015,04,17,00,07,7.40
2015,04,17,00,08,7.40
2015,04,17,00,09,7.40
2015,04,17,00,10,7.40
2015,04,17,00,11,7.30
2015,04,17,00,12,7.30
2015,04,17,00,13,7.30
2015,04,17,00,14,7.30
2015,04,17,00,15,7.30
2015,04,17,00,16,7.30
2015,04,17,00,17,7.30
2015,04,17,00,18,7.20
2015,04,17,00,19,7.20
2015,04,17,00,20,7.20
2015,04,17,00,21,7.20
2015,04,17,00,22,7.30
2015,04,17,00,23,7.30
2015,04,17,00,24,7.30
2015,04,17,00,25,7.30
2015,04,17,00,26,7.30
2015,04,17,00,27,7.30
2015,04,17,00,28,7.30
2015,04,17,00,29,7.30
2015,04,17,00,30,7.20
2015,04,17,00,31,7.20
2015,04,17,00,32,7.10
2015,04,17,00,33,7.10
2015,04,17,00,34,7.00
2015,04,17,00,35,7.00
2015,04,17,00,36,6.90
2015,04,17,00,37,6.90
2015,04,17,00,38,6.90
2015,04,17,00,39,6.90
2015,04,17,00,40,6.80
2015,04,17,00,41,6.80
2015,04,17,00,42,6.80
2015,04,17,00,43,6.80
2015,04,17,00,44,6.80
2015,04,17,00,45,6.80
2015,04,17,00,46,6.80
2015,04,17,00,47,6.80
2015,04,17,00,48,6.80
2015,04,17,00,49,6.80
2015,04,17,00,50,6.80
2015,04,17,00,51,6.70
2015,04,17,00,52,6.70
2015,04,17,00,53,6.70
2015,04,17,00,54,6.70
2015,04,17,00,55,6.70
2015,04,17,00,56,6.70
2015,04,17,00,57,6.70
2015,04,17,00,58,6.60
2015,04,17,00,59,6.60
2015,04,17,01,00,6.60
2015,04,17,01,01,6.60
2015,04,17,01,02,6.60
2015,04,17,01,03,6.60
2015,04,17,01,04,6.60
2015,04,17,01,05,6.50
2015,04,17,01,06,6.50
2015,04,17,01,07,6.50
2015,04,17,01,08,6.50
2015,04,17,01,09,6.50
2015,04,17,01,10,6.50
2015,04,17,01,11,6.50
2015,04,17,01,12,6.50
2015,04,17,01,13,6.50
2015,04,17,01,14,6.40
2015,04,17,01,15,6.40
2015,04,17,01,16,6.40
2015,04,17,01,17,6.40
2015,04,17,01,18,6.40
2015,04,17,01,19,6.40
2015,04,17,01,20,6.40
2015,04,17,01,21,6.40
2015,04,17,01,22,6.40
2015,04,17,01,23,6.40
2015,04,17,01,24,6.40
2015,04,17,01,25,6.40
2015,04,17,01,26,6.40
2015,04,17,01,27,6.40
2015,04,17,01,28,6.30
2015,04,17,01,29,6.30
2015,04,17,01,30,6.30
2015,04,17,01,31,6.30
2015,04,17,01,32,6.30
2015,04,17,01,33,6.30
2015,04,17,01,34,6.30
2015,04,17,01,35,6.30
2015,04,17,01,36,6.30
2015,04,17,01,37,6.30
2015,04,17,01,38,6.30
2015,04,17,01,39,6.20
2015,04,17,01,40,6.20
2015,04,17,01,41,6.20
2015,04,17,01,42,6.20
2015,04,17,01,43,6.20
2015,04,17,01,44,6.20
2015,04,17,01,45,6.20
2015,04,17,01,46,6.20
2015,04,17,01,47,6.20
2015,04,17,01,48,6.20
2015,04,17,01,49,6.20
2015,04,17,01,50,6.20
2015,04,17,01,51,6.20
2015,04,17,01,52,6.20
2015,04,17,01,53,6.20
2015,04,17,01,54,6.20
2015,04,17,01,55,6.20
2015,04,17,01,56,6.20
2015,04,17,01,57,6.10
2015,04,17,01,58,6.10
2015,04,17,01,59,6.10
2015,04,17,02,00,6.10
2015,04,17,02,01,6.10
2015,04,17,02,02,6.10
2015,04,17,02,03,6.10
2015,04,17,02,04,6.10
2015,04,17,02,05,6.00
2015,04,17,02,06,6.00
2015,04,17,02,07,6.00
2015,04,17,02,08,6.00
2015,04,17,02,09,6.00
2015,04,17,02,10,5.90
2015,04,17,02,11,5.90
2015,04,17,02,12,5.90
2015,04,17,02,13,5.90
2015,04,17,02,14,5.90
2015,04,17,02,15,5.90
2015,04,17,02,16,5.90
2015,04,17,02,17,5.90
2015,04,17,02,18,5.80
2015,04,17,02,19,5.80
2015,04,17,02,20,5.80
2015,04,17,02,21,5.80
2015,04,17,02,22,5.80
2015,04,17,02,23,5.80
2015,04,17,02,24,5.80
2015,04,17,02,25,5.80
2015,04,17,02,26,5.80
2015,04,17,02,27,5.80
2015,04,17,02,28,5.80
2015,04,17,02,29,5.80
2015,04,17,02,30,5.80
2015,04,17,02,31,5.70
2015,04,17,02,32,5.70
2015,04,17,02,33,5.70
2015,04,17,02,34,5.70
2015,04,17,02,35,5.70
2015,04,17,02,36,5.60
2015,04,17,02,37,5.60
2015,04,17,02,38,5.60
2015,04,17,02,39,5.50
2015,04,17,02,40,5.50
2015,04,17,02,41,5.50
2015,04,17,02,42,5.50
2015,04,17,02,43,5.50
2015,04,17,02,44,5.50
2015,04,17,02,45,5.50
2015,04,17,02,46,5.50
2015,04,17,02,47,5.50
2015,04,17,02,48,5.50
2015,04,17,02,49,5.50
2015,04,17,02,50,5.50
2015,04,17,02,51,5.50
2015,04,17,02,52,5.40
2015,04,17,02,53,5.40
2015,04,17,02,54,5.40
2015,04,17,02,55,5.40
2015,04,17,02,56,5.40
2015,04,17,02,57,5.40
2015,04,17,02,58,5.40
2015,04,17,02,59,5.40
2015,04,17,03,00,5.40
2015,04,17,03,01,5.30
2015,04,17,03,02,5.30
2015,04,17,03,03,5.30
2015,04,17,03,04,5.30
2015,04,17,03,05,5.30
2015,04,17,03,06,5.30
2015,04,17,03,07,5.30
2015,04,17,03,08,5.30
2015,04,17,03,09,5.30
2015,04,17,03,10,5.30
2015,04,17,03,11,5.30
2015,04,17,03,12,5.30
2015,04,17,03,13,5.30
2015,04,17,03,14,5.30
2015,04,17,03,15,5.30
2015,04,17,03,16,5.30
2015,04,17,03,17,5.30
2015,04,17,03,18,5.30
2015,04,17,03,19,5.20
2015,04,17,03,20,5.30
2015,04,17,03,21,5.30
2015,04,17,03,22,5.30
2015,04,17,03,23,5.30
2015,04,17,03,24,5.30
2015,04,17,03,25,5.30
2015,04,17,03,26,5.30
2015,04,17,03,27,5.30
2015,04,17,03,28,5.30
2015,04,17,03,29,5.30
2015,04,17,03,30,5.30
2015,04,17,03,31,5.40
2015,04,17,03,32,5.40
2015,04,17,03,33,5.40
2015,04,17,03,34,5.50
2015,04,17,03,35,5.50
2015,04,17,03,36,5.60
2015,04,17,03,37,5.60
2015,04,17,03,38,5.60
2015,04,17,03,39,5.60
2015,04,17,03,40,5.60
2015,04,17,03,41,5.60
2015,04,17,03,42,5.60
2015,04,17,03,43,5.60
2015,04,17,03,44,5.60
2015,04,17,03,45,5.60
2015,04,17,03,46,5.60
2015,04,17,03,47,5.60
2015,04,17,03,48,5.60
2015,04,17,03,49,5.70
2015,04,17,03,50,5.70
2015,04,17,03,51,5.70
2015,04,17,03,52,5.70
2015,04,17,03,53,5.70
2015,04,17,03,54,5.70
2015,04,17,03,55,5.70
2015,04,17,03,56,5.70
2015,04,17,03,57,5.70
2015,04,17,03,58,5.70
2015,04,17,03,59,5.70
2015,04,17,04,00,5.70
2015,04,17,04,01,5.70
2015,04,17,04,02,5.70
2015,04,17,04,03,5.70
2015,04,17,04,04,5.70
2015,04,17,04,05,5.70
2015,04,17,04,06,5.70
2015,04,17,04,07,5.70
2015,04,17,04,08,5.70
2015,04,17,04,09,5.70
2015,04,17,04,10,5.70
2015,04,17,04,11,5.70
2015,04,17,04,12,5.70
2015,04,17,04,13,5.70
2015,04,17,04,14,5.60
2015,04,17,04,15,5.60
2015,04,17,04,16,5.60
2015,04,17,04,17,5.60
2015,04,17,04,18,5.60
2015,04,17,04,19,5.60
2015,04,17,04,20,5.60
2015,04,17,04,21,5.60
2015,04,17,04,22,5.60
2015,04,17,04,23,5.60
2015,04,17,04,24,5.60
2015,04,17,04,25,5.60
2015,04,17,04,26,5.60
2015,04,17,04,27,5.50
2015,04,17,04,28,5.50
2015,04,17,04,29,5.50
2015,04,17,04,30,5.50
2015,04,17,04,31,5.50
2015,04,17,04,32,5.50
2015,04,17,04,33,5.50
2015,04,17,04,34,5.50
2015,04,17,04,35,5.50
2015,04,17,04,36,5.50
2015,04,17,04,37,5.50
2015,04,17,04,38,5.50
2015,04,17,04,39,5.50
2015,04,17,04,40,5.40
2015,04,17,04,41,5.40
2015,04,17,04,42,5.40
2015,04,17,04,43,5.40
2015,04,17,04,44,5.40
2015,04,17,04,45,5.40
2015,04,17,04,46,5.40
2015,04,17,04,47,5.50
2015,04,17,04,48,5.50
2015,04,17,04,49,5.50
2015,04,17,04,50,5.50
2015,04,17,04,51,5.50
2015,04,17,04,52,5.50
2015,04,17,04,53,5.50
2015,04,17,04,54,5.50
2015,04,17,04,55,5.50
2015,04,17,04,56,5.50
2015,04,17,04,57,5.50
2015,04,17,04,58,5.50
2015,04,17,04,59,5.50
2015,04,17,05,00,5.50
2015,04,17,05,01,5.50
2015,04,17,05,02,5.50
2015,04,17,05,03,5.40
2015,04,17,05,04,5.50
2015,04,17,05,05,5.40
2015,04,17,05,06,5.40
2015,04,17,05,07,5.40
2015,04,17,05,08,5.40
2015,04,17,05,09,5.40
2015,04,17,05,10,5.50
2015,04,17,05,11,5.50
2015,04,17,05,12,5.50
2015,04,17,05,13,5.50
2015,04,17,05,14,5.50
2015,04,17,05,15,5.50
2015,04,17,05,16,5.60
2015,04,17,05,17,5.60
2015,04,17,05,18,5.60
2015,04,17,05,19,5.60
2015,04,17,05,20,5.60
2015,04,17,05,21,5.60
2015,04,17,05,22,5.50
2015,04,17,05,23,5.50
2015,04,17,05,24,5.50
2015,04,17,05,25,5.50
2015,04,17,05,26,5.50
2015,04,17,05,27,5.50
2015,04,17,05,28,5.50
2015,04,17,05,29,5.50
2015,04,17,05,30,5.50
2015,04,17,05,31,5.50
2015,04,17,05,32,5.50
2015,04,17,05,33,5.50
2015,04,17,05,34,5.50
2015,04,17,05,35,5.50
2015,04,17,05,36,5.50
2015,04,17,05,37,5.50
2015,04,17,05,38,5.50
2015,04,17,05,39,5.50
2015,04,17,05,40,5.50
2015,04,17,05,41,5.50
2015,04,17,05,42,5.50
2015,04,17,05,43,5.50
2015,04,17,05,44,5.50
2015,04,17,05,45,5.50
2015,04,17,05,46,5.50
2015,04,17,05,47,5.50
2015,04,17,05,48,5.50
2015,04,17,05,49,5.50
2015,04,17,05,50,5.50
2015,04,17,05,51,5.50
2015,04,17,05,52,5.50
2015,04,17,05,53,5.60
2015,04,17,05,54,5.60
2015,04,17,05,55,5.60
2015,04,17,05,56,5.60
2015,04,17,05,57,5.60
2015,04,17,05,58,5.60
2015,04,17,05,59,5.70
2015,04,17,06,00,5.70
2015,04,17,06,01,5.70
2015,04,17,06,02,5.70
2015,04,17,06,03,5.70
2015,04,17,06,04,5.70
2015,04,17,06,05,5.70
2015,04,17,06,06,5.70
2015,04,17,06,07,5.70
2015,04,17,06,08,5.70
2015,04,17,06,09,5.80
2015,04,17,06,10,5.80
2015,04,17,06,11,5.80
2015,04,17,06,12,5.80
2015,04,17,06,13,5.80
2015,04,17,06,14,5.80
2015,04,17,06,15,5.80
2015,04,17,06,16,5.80
2015,04,17,06,17,5.80
2015,04,17,06,18,5.90
2015,04,17,06,19,5.90
2015,04,17,06,20,5.90
2015,04,17,06,21,5.90
2015,04,17,06,22,5.90
2015,04,17,06,23,5.90
2015,04,17,06,24,6.00
2015,04,17,06,25,6.00
2015,04,17,06,26,6.00
2015,04,17,06,27,6.00
2015,04,17,06,28,6.10
2015,04,17,06,29,6.10
2015,04,17,06,30,6.10
2015,04,17,06,31,6.10
2015,04,17,06,32,6.10
2015,04,17,06,33,6.10
2015,04,17,06,34,6.10
2015,04,17,06,35,6.20
2015,04,17,06,36,6.20
2015,04,17,06,37,6.20
2015,04,17,06,38,6.20
2015,04,17,06,39,6.20
2015,04,17,06,40,6.20
2015,04,17,06,41,6.20
2015,04,17,06,42,6.20
2015,04,17,06,43,6.30
2015,04,17,06,44,6.30
2015,04,17,06,45,6.30
2015,04,17,06,46,6.30
2015,04,17,06,47,6.30
2015,04,17,06,48,6.30
2015,04,17,06,49,6.30
2015,04,17,06,50,6.40
2015,04,17,06,51,6.40
2015,04,17,06,52,6.40
2015,04,17,06,53,6.40
2015,04,17,06,54,6.40
2015,04,17,06,55,6.50
2015,04,17,06,56,6.50
2015,04,17,06,57,6.50
2015,04,17,06,58,6.50
2015,04,17,06,59,6.60
2015,04,17,07,00,6.60
2015,04,17,07,01,6.60
2015,04,17,07,02,6.60
2015,04,17,07,03,6.60
2015,04,17,07,04,6.70
2015,04,17,07,05,6.70
2015,04,17,07,06,6.70
2015,04,17,07,07,6.70
2015,04,17,07,08,6.70
2015,04,17,07,09,6.70
2015,04,17,07,10,6.70
2015,04,17,07,11,6.70
2015,04,17,07,12,6.80
2015,04,17,07,13,6.80
2015,04,17,07,14,6.80
2015,04,17,07,15,6.90
2015,04,17,07,16,6.90
2015,04,17,07,17,6.90
2015,04,17,07,18,6.90
2015,04,17,07,19,6.90
2015,04,17,07,20,7.00
2015,04,17,07,21,7.00
2015,04,17,07,22,7.00
2015,04,17,07,23,7.10
2015,04,17,07,24,7.10
2015,04,17,07,25,7.10
2015,04,17,07,26,7.10
2015,04,17,07,27,7.20
2015,04,17,07,28,7.20
2015,04,17,07,29,7.30
2015,04,17,07,30,7.30
2015,04,17,07,31,7.30
2015,04,17,07,32,7.40
2015,04,17,07,33,7.40
2015,04,17,07,34,7.50
2015,04,17,07,35,7.60
2015,04,17,07,36,7.60
2015,04,17,07,37,7.70
2015,04,17,07,38,7.70
2015,04,17,07,39,7.80
2015,04,17,07,40,7.80
2015,04,17,07,41,7.90
2015,04,17,07,42,7.90
2015,04,17,07,43,8.00
2015,04,17,07,44,8.00
2015,04,17,07,45,8.10
2015,04,17,07,46,8.20
2015,04,17,07,47,8.20
2015,04,17,07,48,8.30
2015,04,17,07,49,8.30
2015,04,17,07,50,8.30
2015,04,17,07,51,8.30
2015,04,17,07,52,8.30
2015,04,17,07,53,8.30
2015,04,17,07,54,8.30
2015,04,17,07,55,8.30
2015,04,17,07,56,8.30
2015,04,17,07,57,8.30
2015,04,17,07,58,8.30
2015,04,17,07,59,8.40
2015,04,17,08,00,8.30
2015,04,17,08,01,8.30
2015,04,17,08,02,8.30
2015,04,17,08,03,8.30
2015,04,17,08,04,8.30
2015,04,17,08,05,8.30
2015,04,17,08,06,8.30
2015,04,17,08,07,8.30
2015,04,17,08,08,8.30
2015,04,17,08,09,8.30
2015,04,17,08,10,8.30
2015,04,17,08,11,8.30
2015,04,17,08,12,8.20
2015,04,17,08,13,8.20
2015,04,17,08,14,8.20
2015,04,17,08,15,8.20
2015,04,17,08,16,8.20
2015,04,17,08,17,8.20
2015,04,17,08,18,8.20
2015,04,17,08,19,8.20
2015,04,17,08,20,8.20
2015,04,17,08,21,8.20
2015,04,17,08,22,8.20
2015,04,17,08,23,8.30
2015,04,17,08,24,8.30
2015,04,17,08,25,8.30
2015,04,17,08,26,8.30
2015,04,17,08,27,8.40
2015,04,17,08,28,8.40
2015,04,17,08,29,8.50
2015,04,17,08,30,8.50
2015,04,17,08,31,8.60
2015,04,17,08,32,8.60
2015,04,17,08,33,8.60
2015,04,17,08,34,8.70
2015,04,17,08,35,8.70
2015,04,17,08,36,8.80
2015,04,17,08,37,8.80
2015,04,17,08,38,8.90
2015,04,17,08,39,8.90
2015,04,17,08,40,8.90
2015,04,17,08,41,8.90
2015,04,17,08,42,9.00
2015,04,17,08,43,9.00
2015,04,17,08,44,9.10
2015,04,17,08,45,9.10
2015,04,17,08,46,9.10
2015,04,17,08,47,9.20
2015,04,17,08,48,9.20
2015,04,17,08,49,9.20
2015,04,17,08,50,9.20
2015,04,17,08,51,9.30
2015,04,17,08,52,9.30
2015,04,17,08,53,9.30
2015,04,17,08,54,9.30
2015,04,17,08,55,9.30
2015,04,17,08,56,9.40
2015,04,17,08,57,9.40
2015,04,17,08,58,9.40
2015,04,17,08,59,9.40
2015,04,17,09,00,9.40
2015,04,17,09,01,9.50
2015,04,17,09,02,9.60
2015,04,17,09,03,9.60
2015,04,17,09,04,9.70
2015,04,17,09,05,9.80
2015,04,17,09,06,10.00
2015,04,17,09,07,10.10
2015,04,17,09,08,10.30
2015,04,17,09,09,10.40
2015,04,17,09,10,10.40
2015,04,17,09,11,10.50
2015,04,17,09,12,10.60
2015,04,17,09,13,10.70
2015,04,17,09,14,10.80
2015,04,17,09,15,10.90
2015,04,17,09,16,11.10
2015,04,17,09,17,11.20
2015,04,17,09,18,11.30
2015,04,17,09,19,11.40
2015,04,17,09,20,11.50
2015,04,17,09,21,11.60
2015,04,17,09,22,11.70
2015,04,17,09,23,11.70
2015,04,17,09,24,11.80
2015,04,17,09,25,11.80
2015,04,17,09,26,11.80
2015,04,17,09,27,11.90
2015,04,17,09,28,11.90
2015,04,17,09,29,12.00
2015,04,17,09,30,12.10
2015,04,17,09,31,12.10
2015,04,17,09,32,12.20
2015,04,17,09,33,12.30
2015,04,17,09,34,12.40
2015,04,17,09,35,12.50
2015,04,17,09,36,12.60
2015,04,17,09,37,12.70
2015,04,17,09,38,12.80
2015,04,17,09,39,12.90
2015,04,17,09,40,12.90
2015,04,17,09,41,12.90
2015,04,17,09,42,13.00
2015,04,17,09,43,13.00
2015,04,17,09,44,13.10
2015,04,17,09,45,13.20
2015,04,17,09,46,13.20
2015,04,17,09,47,13.30
2015,04,17,09,48,13.30
2015,04,17,09,49,13.40
2015,04,17,09,50,13.50
2015,04,17,09,51,13.60
2015,04,17,09,52,13.70
2015,04,17,09,53,13.90
2015,04,17,09,54,14.10
2015,04,17,09,55,14.20
2015,04,17,09,56,14.40
2015,04,17,09,57,14.50
2015,04,17,09,58,14.60
2015,04,17,09,59,14.70
2015,04,17,10,00,14.70
2015,04,17,10,01,14.80
2015,04,17,10,02,14.90
2015,04,17,10,03,14.90
2015,04,17,10,04,15.00
2015,04,17,10,05,15.10
2015,04,17,10,06,15.10
2015,04,17,10,07,15.20
2015,04,17,10,08,15.30
2015,04,17,10,09,15.40
2015,04,17,10,10,15.50
2015,04,17,10,11,15.60
2015,04,17,10,12,15.60
2015,04,17,10,13,15.50
2015,04,17,10,14,15.50
2015,04,17,10,15,15.40
2015,04,17,10,16,15.50
2015,04,17,10,17,15.50
2015,04,17,10,18,15.60
2015,04,17,10,19,15.60
2015,04,17,10,20,15.60
2015,04,17,10,21,15.50
2015,04,17,10,22,15.60
2015,04,17,10,23,15.70
2015,04,17,10,24,15.60
2015,04,17,10,25,15.60
2015,04,17,10,26,15.60
2015,04,17,10,27,15.60
2015,04,17,10,28,15.50
2015,04,17,10,29,15.50
2015,04,17,10,30,15.50
2015,04,17,10,31,15.50
2015,04,17,10,32,15.60
2015,04,17,10,33,15.70
2015,04,17,10,34,15.70
2015,04,17,10,35,15.60
2015,04,17,10,36,15.60
2015,04,17,10,37,15.50
2015,04,17,10,38,15.50
2015,04,17,10,39,15.40
2015,04,17,10,40,15.30
2015,04,17,10,41,15.20
2015,04,17,10,42,15.20
2015,04,17,10,43,15.30
2015,04,17,10,44,15.30
2015,04,17,10,45,15.40
2015,04,17,10,46,15.50
2015,04,17,10,47,15.50
2015,04,17,10,48,15.40
2015,04,17,10,49,15.50
2015,04,17,10,50,15.50
2015,04,17,10,51,15.50
2015,04,17,10,52,15.40
2015,04,17,10,53,15.40
2015,04,17,10,54,15.30
2015,04,17,10,55,15.20
2015,04,17,10,56,15.00
2015,04,17,10,57,14.90
2015,04,17,10,58,14.70
2015,04,17,10,59,14.60
2015,04,17,11,00,14.50
2015,04,17,11,01,14.40
2015,04,17,11,02,14.30
2015,04,17,11,03,14.30
2015,04,17,11,04,14.30
2015,04,17,11,05,14.20
2015,04,17,11,06,14.20
2015,04,17,11,07,14.20
2015,04,17,11,08,14.10
2015,04,17,11,09,14.10
2015,04,17,11,10,14.10
2015,04,17,11,11,14.10
2015,04,17,11,12,14.10
2015,04,17,11,13,14.10
2015,04,17,11,14,14.20
2015,04,17,11,15,14.20
2015,04,17,11,16,14.30
2015,04,17,11,17,14.30
2015,04,17,11,18,14.30
2015,04,17,11,19,14.30
2015,04,17,11,20,14.40
2015,04,17,11,21,14.40
2015,04,17,11,22,14.40
2015,04,17,11,23,14.40
2015,04,17,11,24,14.40
2015,04,17,11,25,14.30
2015,04,17,11,26,14.30
2015,04,17,11,27,14.30
2015,04,17,11,28,14.30
2015,04,17,11,29,14.30
2015,04,17,11,30,14.30
2015,04,17,11,31,14.30
2015,04,17,11,32,14.30
2015,04,17,11,33,14.30
2015,04,17,11,34,14.30
2015,04,17,11,35,14.30
2015,04,17,11,36,14.40
2015,04,17,11,37,14.40
2015,04,17,11,38,14.40
2015,04,17,11,39,14.30
2015,04,17,11,40,14.30
2015,04,17,11,41,14.20
2015,04,17,11,42,14.10
2015,04,17,11,43,14.10
2015,04,17,11,44,14.10
2015,04,17,11,45,14.00
2015,04,17,11,46,14.00
2015,04,17,11,47,14.00
2015,04,17,11,48,14.00
2015,04,17,11,49,14.00
2015,04,17,11,50,14.10
2015,04,17,11,51,14.10
2015,04,17,11,52,14.10
2015,04,17,11,53,14.10
2015,04,17,11,54,14.10
2015,04,17,11,55,14.20
2015,04,17,11,56,14.20
2015,04,17,11,57,14.20
2015,04,17,11,58,14.20
2015,04,17,11,59,14.20
2015,04,17,12,00,14.30
2015,04,17,12,01,14.30
2015,04,17,12,02,14.40
2015,04,17,12,03,14.50
2015,04,17,12,04,14.60
2015,04,17,12,05,14.60
2015,04,17,12,06,14.60
2015,04,17,12,07,14.70
2015,04,17,12,08,14.70
2015,04,17,12,09,14.70
2015,04,17,12,10,14.70
2015,04,17,12,11,14.70
2015,04,17,12,12,14.70
2015,04,17,12,13,14.70
2015,04,17,12,14,14.80
2015,04,17,12,15,14.80
2015,04,17,12,16,14.80
2015,04,17,12,17,14.90
2015,04,17,12,18,14.90
2015,04,17,12,19,14.90
2015,04,17,12,20,14.90
2015,04,17,12,21,15.00
2015,04,17,12,22,15.00
2015,04,17,12,23,15.10
2015,04,17,12,24,15.20
2015,04,17,12,25,15.30
2015,04,17,12,26,15.30
2015,04,17,12,27,15.30
2015,04,17,12,28,15.30
2015,04,17,12,29,15.40
2015,04,17,12,30,15.50
2015,04,17,12,31,15.50
2015,04,17,12,32,15.50
2015,04,17,12,33,15.50
2015,04,17,12,34,15.60
2015,04,17,12,35,15.60
2015,04,17,12,36,15.70
2015,04,17,12,37,15.80
2015,04,17,12,38,15.80
2015,04,17,12,39,15.90
2015,04,17,12,40,16.00
2015,04,17,12,41,16.10
2015,04,17,12,42,16.20
2015,04,17,12,43,16.20
2015,04,17,12,44,16.20
2015,04,17,12,45,16.30
2015,04,17,12,46,16.40
2015,04,17,12,47,16.40
2015,04,17,12,48,16.30
2015,04,17,12,49,16.30
2015,04,17,12,50,16.30
2015,04,17,12,51,16.20
2015,04,17,12,52,16.20
2015,04,17,12,53,16.20
2015,04,17,12,54,16.10
2015,04,17,12,55,16.10
2015,04,17,12,56,16.00
2015,04,17,12,57,16.00
2015,04,17,12,58,16.00
2015,04,17,12,59,16.10
2015,04,17,13,00,16.10
2015,04,17,13,01,16.20
2015,04,17,13,02,16.40
2015,04,17,13,03,16.50
2015,04,17,13,04,16.60
2015,04,17,13,05,16.70
2015,04,17,13,06,16.70
2015,04,17,13,07,16.70
2015,04,17,13,08,16.70
2015,04,17,13,09,16.70
2015,04,17,13,10,16.70
2015,04,17,13,11,16.70
2015,04,17,13,12,16.70
2015,04,17,13,13,16.70
2015,04,17,13,14,16.70
2015,04,17,13,15,16.80
2015,04,17,13,16,16.80
2015,04,17,13,17,16.90
2015,04,17,13,18,17.00
2015,04,17,13,19,17.00
2015,04,17,13,20,17.10
2015,04,17,13,21,17.00
2015,04,17,13,22,16.90
2015,04,17,13,23,16.90
2015,04,17,13,24,16.80
2015,04,17,13,25,16.80
2015,04,17,13,26,16.80
2015,04,17,13,27,16.80
2015,04,17,13,28,16.70
2015,04,17,13,29,16.70
2015,04,17,13,30,16.70
2015,04,17,13,31,16.80
2015,04,17,13,32,16.80
2015,04,17,13,33,16.80
2015,04,17,13,34,16.80
2015,04,17,13,35,16.80
2015,04,17,13,36,16.80
2015,04,17,13,37,16.90
2015,04,17,13,38,16.90
2015,04,17,13,39,17.00
2015,04,17,13,40,17.10
2015,04,17,13,41,17.20
2015,04,17,13,42,17.30
2015,04,17,13,43,17.40
2015,04,17,13,44,17.50
2015,04,17,13,45,17.60
2015,04,17,13,46,17.60
2015,04,17,13,47,17.60
2015,04,17,13,48,17.60
2015,04,17,13,49,17.60
2015,04,17,13,50,17.60
2015,04,17,13,51,17.60
2015,04,17,13,52,17.60
2015,04,17,13,53,17.60
2015,04,17,13,54,17.70
2015,04,17,13,55,17.80
2015,04,17,13,56,17.80
2015,04,17,13,57,17.90
2015,04,17,13,58,18.00
2015,04,17,13,59,18.10
2015,04,17,14,00,18.10
2015,04,17,14,01,18.30
2015,04,17,14,02,18.40
2015,04,17,14,03,18.40
2015,04,17,14,04,18.30
2015,04,17,14,05,18.20
2015,04,17,14,06,18.10
2015,04,17,14,07,18.10
2015,04,17,14,08,18.10
2015,04,17,14,09,18.00
2015,04,17,14,10,18.00
2015,04,17,14,11,17.90
2015,04,17,14,12,17.90
2015,04,17,14,13,17.80
2015,04,17,14,14,17.90
2015,04,17,14,15,17.90
2015,04,17,14,16,17.90
2015,04,17,14,17,17.90
2015,04,17,14,18,17.90
2015,04,17,14,19,17.90
2015,04,17,14,20,17.90
2015,04,17,14,21,18.00
2015,04,17,14,22,18.10
2015,04,17,14,23,18.20
2015,04,17,14,24,18.20
2015,04,17,14,25,18.20
2015,04,17,14,26,18.20
2015,04,17,14,27,18.30
2015,04,17,14,28,18.30
2015,04,17,14,29,18.40
2015,04,17,14,30,18.40
2015,04,17,14,31,18.40
2015,04,17,14,32,18.30
2015,04,17,14,33,18.30
2015,04,17,14,34,18.30
2015,04,17,14,35,18.40
2015,04,17,14,36,18.40
2015,04,17,14,37,18.40
2015,04,17,14,38,18.50
2015,04,17,14,39,18.60
2015,04,17,14,40,18.70
2015,04,17,14,41,18.70
2015,04,17,14,42,18.70
2015,04,17,14,43,18.60
2015,04,17,14,44,18.60
2015,04,17,14,45,18.50
2015,04,17,14,46,18.50
2015,04,17,14,47,18.50
2015,04,17,14,48,18.60
2015,04,17,14,49,18.60
2015,04,17,14,50,18.60
2015,04,17,14,51,18.70
2015,04,17,14,52,18.70
2015,04,17,14,53,18.70
2015,04,17,14,54,18.80
2015,04,17,14,55,18.80
2015,04,17,14,56,19.00
2015,04,17,14,57,19.10
2015,04,17,14,58,19.30
2015,04,17,14,59,19.30
2015,04,17,15,00,19.30
2015,04,17,15,01,19.10
2015,04,17,15,02,18.90
2015,04,17,15,03,18.70
2015,04,17,15,04,18.60
2015,04,17,15,05,18.50
2015,04,17,15,06,18.40
2015,04,17,15,07,18.30
2015,04,17,15,08,18.30
2015,04,17,15,09,18.30
2015,04,17,15,10,18.30
2015,04,17,15,11,18.30
2015,04,17,15,12,18.30
2015,04,17,15,13,18.20
2015,04,17,15,14,18.10
2015,04,17,15,15,18.00
2015,04,17,15,16,17.90
2015,04,17,15,17,17.90
2015,04,17,15,18,17.80
2015,04,17,15,19,17.80
2015,04,17,15,20,17.80
2015,04,17,15,21,17.70
2015,04,17,15,22,17.70
2015,04,17,15,23,17.60
2015,04,17,15,24,17.60
2015,04,17,15,25,17.50
2015,04,17,15,26,17.50
2015,04,17,15,27,17.40
2015,04,17,15,28,17.40
2015,04,17,15,29,17.30
2015,04,17,15,30,17.30
2015,04,17,15,31,17.20
2015,04,17,15,32,17.20
2015,04,17,15,33,17.10
2015,04,17,15,34,17.10
2015,04,17,15,35,17.10
2015,04,17,15,36,17.10
2015,04,17,15,37,17.10
2015,04,17,15,38,17.10
2015,04,17,15,39,17.10
2015,04,17,15,40,17.10
2015,04,17,15,41,17.10
2015,04,17,15,42,17.10
2015,04,17,15,43,17.10
2015,04,17,15,44,17.10
2015,04,17,15,45,17.10
2015,04,17,15,46,17.10
2015,04,17,15,47,17.20
2015,04,17,15,48,17.30
2015,04,17,15,49,17.30
2015,04,17,15,50,17.30
2015,04,17,15,51,17.40
2015,04,17,15,52,17.40
2015,04,17,15,53,17.40
2015,04,17,15,54,17.40
2015,04,17,15,55,17.30
2015,04,17,15,56,17.20
2015,04,17,15,57,17.10
2015,04,17,15,58,17.00
2015,04,17,15,59,17.00
2015,04,17,16,00,16.90
2015,04,17,16,01,16.90
2015,04,17,16,02,17.00
2015,04,17,16,03,17.10
2015,04,17,16,04,17.10
2015,04,17,16,05,17.10
2015,04,17,16,06,17.20
2015,04,17,16,07,17.20
2015,04,17,16,08,17.20
2015,04,17,16,09,17.20
2015,04,17,16,10,17.20
2015,04,17,16,11,17.20
2015,04,17,16,12,17.30
2015,04,17,16,13,17.30
2015,04,17,16,14,17.30
2015,04,17,16,15,17.30
2015,04,17,16,16,17.40
2015,04,17,16,17,17.40
2015,04,17,16,18,17.40
2015,04,17,16,19,17.40
2015,04,17,16,20,17.40
2015,04,17,16,21,17.40
2015,04,17,16,22,17.50
2015,04,17,16,23,17.50
2015,04,17,16,24,17.60
2015,04,17,16,25,17.60
2015,04,17,16,26,17.60
2015,04,17,16,27,17.60
2015,04,17,16,28,17.60
2015,04,17,16,29,17.60
2015,04,17,16,30,17.60
2015,04,17,16,31,17.60
2015,04,17,16,32,17.60
2015,04,17,16,33,17.50
2015,04,17,16,34,17.50
2015,04,17,16,35,17.40
2015,04,17,16,36,17.40
2015,04,17,16,37,17.40
2015,04,17,16,38,17.40
2015,04,17,16,39,17.40
2015,04,17,16,40,17.40
2015,04,17,16,41,17.40
2015,04,17,16,42,17.40
2015,04,17,16,43,17.40
2015,04,17,16,44,17.30
2015,04,17,16,45,17.30
2015,04,17,16,46,17.20
2015,04,17,16,47,17.20
2015,04,17,16,48,17.20
2015,04,17,16,49,17.10
2015,04,17,16,50,17.10
2015,04,17,16,51,17.20
2015,04,17,16,52,17.20
2015,04,17,16,53,17.30
2015,04,17,16,54,17.30
2015,04,17,16,55,17.30
2015,04,17,16,56,17.30
2015,04,17,16,57,17.20
2015,04,17,16,58,17.20
2015,04,17,16,59,17.20
2015,04,17,17,00,17.10
2015,04,17,17,01,17.10
2015,04,17,17,02,17.00
2015,04,17,17,03,17.00
2015,04,17,17,04,16.90
2015,04,17,17,05,16.90
2015,04,17,17,06,16.90
2015,04,17,17,07,16.80
2015,04,17,17,08,16.80
2015,04,17,17,09,16.80
2015,04,17,17,10,16.80
2015,04,17,17,11,16.80
2015,04,17,17,12,16.80
2015,04,17,17,13,16.70
2015,04,17,17,14,16.70
2015,04,17,17,15,16.70
2015,04,17,17,16,16.70
2015,04,17,17,17,16.70
2015,04,17,17,18,16.80
2015,04,17,17,19,16.80
2015,04,17,17,20,16.80
2015,04,17,17,21,16.80
2015,04,17,17,22,16.80
2015,04,17,17,23,16.80
2015,04,17,17,24,16.80
2015,04,17,17,25,16.70
2015,04,17,17,26,16.70
2015,04,17,17,27,16.70
2015,04,17,17,28,16.70
2015,04,17,17,29,16.60
2015,04,17,17,30,16.60
2015,04,17,17,31,16.60
2015,04,17,17,32,16.50
2015,04,17,17,33,16.50
2015,04,17,17,34,16.40
2015,04,17,17,35,16.40
2015,04,17,17,36,16.40
2015,04,17,17,37,16.40
2015,04,17,17,38,16.40
2015,04,17,17,39,16.40
2015,04,17,17,40,16.40
2015,04,17,17,41,16.40
2015,04,17,17,42,16.40
2015,04,17,17,43,16.40